sat.trackr.live / text

‹ back to catalog

ONEWEB-0685

NORAD 54679 · 2022-166AP

PAYLOAD ACTIVE UNKNOWN

§ Identity

Operator
Country
UK
Launch date
2022-12-08
Launch site
AFETR
Launch vehicle
Mass (kg)
RCS (m²)

Purposes: comms

External: N2YO · Heavens-Above · Gunter

§ Orbital elements

Epoch: 2026-09-20T04:20:04.958880Z

Period
108.83 min
Inclination
87.9278°
Eccentricity
0.0002206
Mean motion
13.23187853 rev/d
Perigee alt
1,170.9 km
Apogee alt
1,174.2 km
Semi-major
7,550.7 km
B*
8.8934e-5
RAAN
225.0382°
Arg perigee
95.2949°
Mean anomaly
264.8437°
Rev number
18,397

§ Raw data

ONEWEB-06851 54679U 22166AP  26263.18061295  .00000051  00000+0  88934-4 0  99902 54679  87.9278 225.0382 0002206  95.2949 264.8437 13.23187853183977

JSON: /api/v1/satellites/54679 · /tle

For live sub-satellite position, see the globe view (requires WebGL).

§ Visibility from observer

Set your observer location to see the next 7 days of passes ≥ 10°. The values pass through the URL so the page stays shareable.

No JS? Fill the form by hand. The geolocation button needs JavaScript.